| time (UTC) | temp C | wind direction | speed KPH | gust KPH | rain 1hr cm | rain 24hr cm | rain mn cm | humidity % | barometer mb |
| 20260508202416 | 11 | 271 | 8.0 | 17.7 | 0.00 | 0.00 | 0.00 | 75 | 1022.5 |
| 20260508201350 | 12 | 292 | 9.7 | 16.1 | 0.00 | 0.00 | 0.00 | 75 | 1022.4 |
| 20260508193206 | 12 | 305 | 8.0 | 14.5 | 0.00 | 0.00 | 0.00 | 76 | 1022.6 |
| 20260508192140 | 11 | 303 | 8.0 | 14.5 | 0.00 | 0.00 | 0.00 | 76 | 1022.6 |
| 20260508190048 | 11 | 310 | 9.7 | 14.5 | 0.00 | 0.00 | 0.00 | 75 | 1022.5 |
| 20260508185535 | 11 | 277 | 8.0 | 14.5 | 0.00 | 0.00 | 0.00 | 76 | 1022.5 |
| 20260508185022 | 11 | 310 | 8.0 | 11.3 | 0.00 | 0.00 | 0.00 | 76 | 1022.5 |
| 20260508184509 | 11 | 277 | 1.6 | 16.1 | 0.00 | 0.00 | 0.00 | 76 | 1022.6 |
| 20260508183956 | 11 | 309 | 4.8 | 16.1 | 0.00 | 0.00 | 0.00 | 77 | 1022.6 |
| 20260508183443 | 11 | 301 | 11.3 | 16.1 | 0.00 | 0.00 | 0.00 | 77 | 1022.7 |
| 20260508182930 | 11 | 273 | 6.4 | 14.5 | 0.00 | 0.00 | 0.00 | 77 | 1022.7 |
| 20260508182417 | 11 | 277 | 1.6 | 14.5 | 0.00 | 0.00 | 0.00 | 78 | 1022.7 |
| 20260508181904 | 11 | 273 | 6.4 | 14.5 | 0.00 | 0.00 | 0.00 | 78 | 1022.6 |
| 20260508181351 | 11 | 238 | 4.8 | 11.3 | 0.00 | 0.00 | 0.00 | 78 | 1022.7 |
| 20260508180838 | 11 | 287 | 3.2 | 12.9 | 0.00 | 0.00 | 0.00 | 78 | 1022.7 |
| 20260508180325 | 11 | 291 | 8.0 | 12.9 | 0.00 | 0.00 | 0.00 | 78 | 1022.7 |
| 20260508175812 | 11 | 0 | 1.6 | 12.9 | 0.00 | 0.00 | 0.00 | 78 | 1022.8 |
| 20260508175259 | 11 | 268 | 0.0 | 14.5 | 0.00 | 0.00 | 0.00 | 78 | 1022.9 |
| 20260508174746 | 11 | 249 | 4.8 | 14.5 | 0.00 | 0.00 | 0.00 | 78 | 1022.9 |
| 20260508174233 | 11 | 245 | 0.0 | 14.5 | 0.00 | 0.00 | 0.00 | 78 | 1022.8 |
| 20260508173720 | 10 | 226 | 0.0 | 8.0 | 0.00 | 0.00 | 0.00 | 78 | 1022.8 |
| 20260508173207 | 10 | 215 | 0.0 | 8.0 | 0.00 | 0.00 | 0.00 | 78 | 1022.7 |
| 20260508172654 | 11 | 260 | 0.0 | 12.9 | 0.00 | 0.00 | 0.00 | 78 | 1022.7 |
| 20260508171628 | 10 | 222 | 1.6 | 11.3 | 0.00 | 0.00 | 0.00 | 78 | 1022.7 |
| 20260508171115 | 10 | 263 | 0.0 | 8.0 | 0.00 | 0.00 | 0.00 | 79 | 1022.7 |
| 20260508170049 | 10 | 184 | 0.0 | 9.7 | 0.00 | 0.00 | 0.00 | 79 | 1022.6 |
| 20260508165536 | 10 | 217 | 4.8 | 9.7 | 0.00 | 0.00 | 0.00 | 79 | 1022.6 |
| 20260508165023 | 10 | 0 | 0.0 | 14.5 | 0.00 | 0.00 | 0.00 | 80 | 1022.6 |
| 20260508164510 | 10 | 247 | 0.0 | 14.5 | 0.00 | 0.00 | 0.00 | 80 | 1022.5 |
| 20260508163444 | 10 | 184 | 3.2 | 12.9 | 0.00 | 0.00 | 0.00 | 80 | 1022.4 |
| 20260508162931 | 10 | 242 | 1.6 | 12.9 | 0.00 | 0.00 | 0.00 | 80 | 1022.3 |
| 20260508162418 | 10 | 254 | 0.0 | 9.7 | 0.00 | 0.00 | 0.00 | 80 | 1022.2 |
| 20260508161352 | 10 | 252 | 0.0 | 8.0 | 0.00 | 0.00 | 0.00 | 80 | 1022.2 |
| 20260508160839 | 10 | 0 | 0.0 | 8.0 | 0.00 | 0.00 | 0.00 | 81 | 1022.1 |
| 20260508160326 | 10 | 166 | 1.6 | 8.0 | 0.00 | 0.00 | 0.00 | 81 | 1022.1 |
| 20260508155813 | 10 | 0 | 0.0 | 0.0 | 0.00 | 0.00 | 0.00 | 81 | 1022.1 |
| 20260508155300 | 10 | 0 | 0.0 | 0.0 | 0.00 | 0.00 | 0.00 | 81 | 1022.2 |
| 20260508154747 | 10 | 0 | 0.0 | 11.3 | 0.00 | 0.00 | 0.00 | 81 | 1022.0 |
| 20260508154234 | 10 | 0 | 0.0 | 11.3 | 0.00 | 0.00 | 0.00 | 82 | 1022.1 |
| 20260508153721 | 10 | 221 | 3.2 | 11.3 | 0.00 | 0.00 | 0.00 | 82 | 1022.1 |
| 20260508153208 | 10 | 243 | 0.0 | 3.2 | 0.00 | 0.00 | 0.00 | 82 | 1022.0 |
| 20260508152655 | 10 | 0 | 0.0 | 0.0 | 0.00 | 0.00 | 0.00 | 82 | 1022.1 |
| 20260508152142 | 10 | 0 | 0.0 | 6.4 | 0.00 | 0.00 | 0.00 | 83 | 1022.0 |
| 20260508151629 | 10 | 0 | 0.0 | 6.4 | 0.00 | 0.00 | 0.00 | 83 | 1021.9 |
| 20260508151117 | 10 | 224 | 1.6 | 6.4 | 0.00 | 0.00 | 0.00 | 83 | 1021.8 |
| 20260508150603 | 10 | 0 | 0.0 | 0.0 | 0.00 | 0.00 | 0.00 | 83 | 1021.8 |
| 20260508150051 | 10 | 0 | 0.0 | 0.0 | 0.00 | 0.00 | 0.00 | 83 | 1021.6 |
| 20260508145537 | 10 | 0 | 0.0 | 0.0 | 0.00 | 0.00 | 0.00 | 84 | 1021.5 |
| 20260508145024 | 10 | 0 | 0.0 | 0.0 | 0.00 | 0.00 | 0.00 | 84 | 1021.5 |
| 20260508144511 | 10 | 0 | 0.0 | 0.0 | 0.00 | 0.00 | 0.00 | 84 | 1021.3 |
| 20260508143958 | 10 | 0 | 0.0 | 0.0 | 0.00 | 0.00 | 0.00 | 85 | 1021.0 |
| 20260508143445 | 10 | 0 | 0.0 | 0.0 | 0.00 | 0.00 | 0.00 | 85 | 1021.0 |
| 20260508142932 | 10 | 0 | 0.0 | 0.0 | 0.00 | 0.00 | 0.00 | 85 | 1021.2 |
| 20260508142419 | 10 | 0 | 0.0 | 0.0 | 0.00 | 0.00 | 0.00 | 85 | 1021.2 |
| 20260508141906 | 10 | 0 | 0.0 | 0.0 | 0.00 | 0.00 | 0.00 | 86 | 1020.7 |
| 20260508141353 | 10 | 0 | 0.0 | 0.0 | 0.00 | 0.00 | 0.00 | 86 | 1020.7 |
| 20260508140840 | 10 | 0 | 0.0 | 0.0 | 0.00 | 0.00 | 0.00 | 86 | 1020.6 |
| 20260508140327 | 10 | 0 | 0.0 | 0.0 | 0.00 | 0.00 | 0.00 | 86 | 1020.8 |
| 20260508135814 | 10 | 0 | 0.0 | 0.0 | 0.00 | 0.00 | 0.00 | 86 | 1020.9 |
| 20260508135301 | 10 | 0 | 0.0 | 0.0 | 0.00 | 0.00 | 0.00 | 86 | 1020.9 |
| 20260508134748 | 10 | 0 | 0.0 | 0.0 | 0.00 | 0.00 | 0.00 | 86 | 1020.8 |
| 20260508134235 | 9 | 0 | 0.0 | 0.0 | 0.00 | 0.00 | 0.00 | 86 | 1020.8 |
| 20260508133722 | 10 | 0 | 0.0 | 0.0 | 0.00 | 0.00 | 0.00 | 86 | 1020.7 |
| 20260508133209 | 10 | 0 | 0.0 | 0.0 | 0.00 | 0.00 | 0.00 | 86 | 1020.8 |
| 20260508132656 | 10 | 0 | 0.0 | 0.0 | 0.00 | 0.00 | 0.00 | 86 | 1020.8 |
| 20260508132143 | 10 | 0 | 0.0 | 0.0 | 0.00 | 0.00 | 0.00 | 86 | 1020.9 |
| 20260508131117 | 10 | 0 | 0.0 | 0.0 | 0.00 | 0.00 | 0.00 | 86 | 1020.9 |
| 20260508130604 | 9 | 0 | 0.0 | 0.0 | 0.00 | 0.00 | 0.00 | 86 | 1020.8 |
| 20260508125538 | 10 | 0 | 0.0 | 0.0 | 0.00 | 0.00 | 0.00 | 87 | 1020.9 |
| 20260508125026 | 10 | 0 | 0.0 | 0.0 | 0.00 | 0.00 | 0.00 | 87 | 1020.9 |
| 20260508124511 | 10 | 0 | 0.0 | 0.0 | 0.00 | 0.00 | 0.00 | 87 | 1021.0 |
| 20260508123446 | 10 | 0 | 0.0 | 9.7 | 0.00 | 0.00 | 0.00 | 87 | 1021.0 |
| 20260508122932 | 9 | 0 | 0.0 | 9.7 | 0.00 | 0.00 | 0.00 | 87 | 1021.1 |
| 20260508121354 | 9 | 0 | 0.0 | 0.0 | 0.00 | 0.00 | 0.00 | 88 | 1020.8 |
| 20260508120328 | 9 | 0 | 0.0 | 6.4 | 0.00 | 0.00 | 0.00 | 88 | 1020.9 |
| 20260508115306 | 9 | 263 | 0.0 | 4.8 | 0.00 | 0.00 | 0.00 | 89 | 1020.7 |
| 20260508114749 | 9 | 263 | 1.6 | 4.8 | 0.00 | 0.00 | 0.00 | 89 | 1020.6 |
| 20260508114235 | 9 | 0 | 0.0 | 0.0 | 0.00 | 0.00 | 0.00 | 89 | 1020.5 |
| 20260508113722 | 9 | 0 | 0.0 | 0.0 | 0.00 | 0.00 | 0.00 | 89 | 1020.5 |
| 20260508112143 | 9 | 0 | 0.0 | 6.4 | 0.00 | 0.00 | 0.00 | 89 | 1020.4 |
| 20260508111631 | 9 | 0 | 0.0 | 6.4 | 0.00 | 0.00 | 0.00 | 89 | 1020.2 |
| 20260508111117 | 9 | 170 | 0.0 | 6.4 | 0.00 | 0.00 | 0.00 | 89 | 1020.2 |
| 20260508110605 | 9 | 0 | 0.0 | 0.0 | 0.00 | 0.00 | 0.00 | 90 | 1020.0 |
| 20260508110051 | 9 | 0 | 0.0 | 4.8 | 0.00 | 0.00 | 0.00 | 90 | 1020.0 |
| 20260508105538 | 9 | 0 | 0.0 | 4.8 | 0.00 | 0.00 | 0.00 | 90 | 1020.0 |
| 20260508105025 | 9 | 155 | 0.0 | 4.8 | 0.00 | 0.00 | 0.00 | 90 | 1020.0 |
| 20260508104604 | 8 | 0 | 0.0 | 0.0 | 0.00 | 0.00 | 0.00 | 90 | 1020.1 |
| 20260508104512 | 8 | 0 | 0.0 | 0.0 | 0.00 | 0.00 | 0.00 | 90 | 1020.1 |
| 20260508103959 | 8 | 0 | 0.0 | 0.0 | 0.00 | 0.00 | 0.00 | 90 | 1020.0 |
| 20260508103446 | 8 | 0 | 0.0 | 0.0 | 0.00 | 0.00 | 0.00 | 90 | 1020.1 |
| 20260508102933 | 8 | 0 | 0.0 | 0.0 | 0.00 | 0.00 | 0.00 | 90 | 1020.1 |
| 20260508102420 | 8 | 0 | 0.0 | 0.0 | 0.00 | 0.00 | 0.00 | 90 | 1020.0 |
| 20260508101907 | 8 | 0 | 0.0 | 0.0 | 0.00 | 0.00 | 0.00 | 90 | 1019.9 |
| 20260508101354 | 8 | 0 | 0.0 | 0.0 | 0.00 | 0.00 | 0.00 | 90 | 1019.9 |
| 20260508100933 | 8 | 0 | 0.0 | 0.0 | 0.00 | 0.00 | 0.00 | 90 | 1019.8 |
| 20260508100842 | 8 | 0 | 0.0 | 0.0 | 0.00 | 0.00 | 0.00 | 90 | 1019.8 |
| 20260508100328 | 8 | 0 | 0.0 | 0.0 | 0.00 | 0.00 | 0.00 | 90 | 1019.7 |
| 20260508095815 | 8 | 0 | 0.0 | 0.0 | 0.00 | 0.00 | 0.00 | 90 | 1019.7 |
| 20260508095306 | 8 | 0 | 0.0 | 0.0 | 0.00 | 0.00 | 0.00 | 90 | 1019.7 |
| 20260508094749 | 8 | 0 | 0.0 | 0.0 | 0.00 | 0.00 | 0.00 | 90 | 1019.5 |
| 20260508094236 | 8 | 0 | 0.0 | 0.0 | 0.00 | 0.00 | 0.00 | 90 | 1019.7 |
| 20260508093723 | 8 | 0 | 0.0 | 0.0 | 0.00 | 0.00 | 0.00 | 90 | 1019.7 |
| 20260508093210 | 8 | 0 | 0.0 | 0.0 | 0.00 | 0.00 | 0.00 | 90 | 1019.8 |
| 20260508092657 | 8 | 0 | 0.0 | 0.0 | 0.00 | 0.00 | 0.00 | 90 | 1019.7 |
| 20260508092144 | 8 | 0 | 0.0 | 0.0 | 0.00 | 0.00 | 0.00 | 90 | 1019.7 |
| 20260508091631 | 8 | 0 | 0.0 | 0.0 | 0.00 | 0.00 | 0.00 | 90 | 1019.6 |
| 20260508091120 | 8 | 0 | 0.0 | 0.0 | 0.00 | 0.00 | 0.00 | 90 | 1019.6 |
| 20260508090605 | 8 | 0 | 0.0 | 0.0 | 0.00 | 0.00 | 0.00 | 90 | 1019.6 |
| 20260508090052 | 8 | 0 | 0.0 | 0.0 | 0.00 | 0.00 | 0.00 | 90 | 1019.5 |
| 20260508085539 | 8 | 0 | 0.0 | 0.0 | 0.00 | 0.00 | 0.00 | 90 | 1019.5 |
| 20260508085026 | 8 | 0 | 0.0 | 0.0 | 0.00 | 0.00 | 0.00 | 90 | 1019.3 |
| 20260508084000 | 8 | 0 | 0.0 | 0.0 | 0.00 | 0.00 | 0.00 | 90 | 1019.3 |
| 20260508083447 | 8 | 0 | 0.0 | 0.0 | 0.00 | 0.00 | 0.00 | 90 | 1019.3 |
| 20260508082935 | 8 | 0 | 0.0 | 0.0 | 0.00 | 0.00 | 0.00 | 90 | 1019.1 |
| 20260508082422 | 8 | 0 | 0.0 | 0.0 | 0.00 | 0.00 | 0.00 | 90 | 1019.0 |
| 20260508081908 | 8 | 0 | 0.0 | 0.0 | 0.00 | 0.00 | 0.00 | 90 | 1018.9 |
| 20260508081355 | 8 | 0 | 0.0 | 0.0 | 0.00 | 0.00 | 0.00 | 90 | 1019.0 |
| 20260508080845 | 8 | 0 | 0.0 | 0.0 | 0.00 | 0.00 | 0.00 | 90 | 1019.0 |
| 20260508080329 | 7 | 0 | 0.0 | 0.0 | 0.00 | 0.00 | 0.00 | 90 | 1019.0 |
| 20260508075816 | 7 | 0 | 0.0 | 0.0 | 0.00 | 0.00 | 0.00 | 90 | 1018.8 |
| 20260508075308 | 7 | 0 | 0.0 | 0.0 | 0.00 | 0.00 | 0.00 | 89 | 1018.9 |
| 20260508074750 | 7 | 0 | 0.0 | 0.0 | 0.00 | 0.00 | 0.00 | 89 | 1019.0 |
| 20260508074237 | 7 | 0 | 0.0 | 0.0 | 0.00 | 0.00 | 0.00 | 89 | 1019.0 |
| 20260508073211 | 7 | 0 | 0.0 | 0.0 | 0.00 | 0.00 | 0.00 | 89 | 1019.0 |
| 20260508072658 | 7 | 0 | 0.0 | 0.0 | 0.00 | 0.00 | 0.00 | 89 | 1019.0 |
| 20260508071632 | 7 | 0 | 0.0 | 0.0 | 0.00 | 0.00 | 0.00 | 88 | 1018.9 |
| 20260508071120 | 7 | 0 | 0.0 | 0.0 | 0.00 | 0.00 | 0.00 | 88 | 1018.8 |
| 20260508070606 | 7 | 0 | 0.0 | 0.0 | 0.00 | 0.00 | 0.00 | 88 | 1018.8 |
| 20260508070053 | 7 | 0 | 0.0 | 0.0 | 0.00 | 0.00 | 0.00 | 88 | 1018.7 |
| 20260508065540 | 7 | 0 | 0.0 | 0.0 | 0.00 | 0.00 | 0.00 | 88 | 1018.7 |
| 20260508065027 | 7 | 0 | 0.0 | 0.0 | 0.00 | 0.00 | 0.00 | 87 | 1018.8 |
| 20260508064001 | 7 | 0 | 0.0 | 0.0 | 0.00 | 0.00 | 0.00 | 87 | 1018.7 |
| 20260508063448 | 7 | 0 | 0.0 | 0.0 | 0.00 | 0.00 | 0.00 | 87 | 1018.8 |
| 20260508062935 | 7 | 0 | 0.0 | 0.0 | 0.00 | 0.00 | 0.00 | 87 | 1018.7 |
| 20260508062422 | 7 | 0 | 0.0 | 0.0 | 0.00 | 0.00 | 0.00 | 86 | 1018.6 |
| 20260508061909 | 7 | 0 | 0.0 | 0.0 | 0.00 | 0.00 | 0.00 | 86 | 1018.6 |
| 20260508061356 | 7 | 0 | 0.0 | 0.0 | 0.00 | 0.00 | 0.00 | 86 | 1018.5 |
| 20260508060843 | 7 | 0 | 0.0 | 0.0 | 0.00 | 0.00 | 0.00 | 86 | 1018.5 |
| 20260508060330 | 7 | 0 | 0.0 | 0.0 | 0.00 | 0.00 | 0.00 | 85 | 1018.6 |
| 20260508055817 | 7 | 0 | 0.0 | 0.0 | 0.00 | 0.00 | 0.00 | 85 | 1018.6 |
| 20260508055306 | 7 | 0 | 0.0 | 0.0 | 0.00 | 0.00 | 0.00 | 85 | 1018.5 |
| 20260508054751 | 7 | 0 | 0.0 | 0.0 | 0.00 | 0.00 | 0.00 | 85 | 1018.5 |
| 20260508053725 | 7 | 0 | 0.0 | 0.0 | 0.00 | 0.00 | 0.00 | 84 | 1018.5 |
| 20260508053212 | 7 | 0 | 0.0 | 0.0 | 0.00 | 0.00 | 0.00 | 84 | 1018.5 |
| 20260508052659 | 7 | 0 | 0.0 | 0.0 | 0.00 | 0.00 | 0.00 | 84 | 1018.5 |
| 20260508052146 | 7 | 0 | 0.0 | 0.0 | 0.00 | 0.00 | 0.00 | 83 | 1018.5 |
| 20260508051633 | 7 | 0 | 0.0 | 0.0 | 0.00 | 0.00 | 0.00 | 83 | 1018.5 |
| 20260508051121 | 8 | 0 | 0.0 | 0.0 | 0.00 | 0.00 | 0.00 | 83 | 1018.4 |
| 20260508050607 | 8 | 0 | 0.0 | 0.0 | 0.00 | 0.00 | 0.00 | 82 | 1018.4 |
| 20260508050054 | 8 | 0 | 0.0 | 0.0 | 0.00 | 0.00 | 0.00 | 82 | 1018.4 |
| 20260508045541 | 8 | 0 | 0.0 | 0.0 | 0.00 | 0.00 | 0.00 | 82 | 1018.5 |
| 20260508045028 | 8 | 0 | 0.0 | 0.0 | 0.00 | 0.00 | 0.00 | 82 | 1018.6 |
| 20260508044515 | 8 | 0 | 0.0 | 0.0 | 0.00 | 0.00 | 0.00 | 82 | 1018.5 |
| 20260508044002 | 8 | 0 | 0.0 | 0.0 | 0.00 | 0.00 | 0.00 | 82 | 1018.5 |
| 20260508043449 | 8 | 0 | 0.0 | 0.0 | 0.00 | 0.00 | 0.00 | 81 | 1018.5 |
| 20260508042936 | 8 | 0 | 0.0 | 0.0 | 0.00 | 0.00 | 0.00 | 81 | 1018.3 |
| 20260508042423 | 8 | 0 | 0.0 | 0.0 | 0.00 | 0.00 | 0.00 | 81 | 1018.4 |
| 20260508041910 | 8 | 0 | 0.0 | 0.0 | 0.00 | 0.00 | 0.00 | 81 | 1018.4 |
| 20260508041357 | 8 | 0 | 0.0 | 0.0 | 0.00 | 0.00 | 0.00 | 81 | 1018.3 |
| 20260508040844 | 8 | 0 | 0.0 | 0.0 | 0.00 | 0.00 | 0.00 | 80 | 1018.2 |
| 20260508040331 | 9 | 0 | 0.0 | 0.0 | 0.00 | 0.00 | 0.00 | 80 | 1018.3 |
| 20260508035818 | 9 | 0 | 0.0 | 0.0 | 0.00 | 0.00 | 0.00 | 80 | 1018.3 |
| 20260508035306 | 9 | 0 | 0.0 | 0.0 | 0.00 | 0.00 | 0.00 | 80 | 1018.3 |
| 20260508034752 | 10 | 0 | 0.0 | 0.0 | 0.00 | 0.00 | 0.00 | 79 | 1018.3 |
| 20260508034239 | 10 | 0 | 0.0 | 0.0 | 0.00 | 0.00 | 0.00 | 79 | 1018.4 |
| 20260508033726 | 10 | 0 | 0.0 | 0.0 | 0.00 | 0.00 | 0.00 | 79 | 1018.3 |
| 20260508033213 | 10 | 0 | 0.0 | 0.0 | 0.00 | 0.00 | 0.00 | 79 | 1018.2 |
| 20260508032700 | 10 | 0 | 0.0 | 0.0 | 0.00 | 0.00 | 0.00 | 79 | 1018.2 |
| 20260508032147 | 10 | 0 | 0.0 | 0.0 | 0.00 | 0.00 | 0.00 | 78 | 1018.1 |
| 20260508031634 | 10 | 0 | 0.0 | 0.0 | 0.00 | 0.00 | 0.00 | 78 | 1018.1 |
| 20260508031121 | 10 | 0 | 0.0 | 0.0 | 0.00 | 0.00 | 0.00 | 78 | 1018.0 |
| 20260508030608 | 10 | 0 | 0.0 | 0.0 | 0.00 | 0.00 | 0.00 | 78 | 1018.0 |
| 20260508030055 | 10 | 0 | 0.0 | 0.0 | 0.00 | 0.00 | 0.00 | 78 | 1017.9 |
| 20260508025542 | 10 | 0 | 0.0 | 8.0 | 0.00 | 0.00 | 0.00 | 77 | 1017.9 |
| 20260508025029 | 10 | 0 | 0.0 | 8.0 | 0.00 | 0.00 | 0.00 | 77 | 1017.9 |
| 20260508024517 | 10 | 0 | 0.0 | 8.0 | 0.00 | 0.00 | 0.00 | 77 | 1018.0 |
| 20260508024003 | 10 | 0 | 0.0 | 4.8 | 0.00 | 0.00 | 0.00 | 77 | 1018.0 |
| 20260508023450 | 11 | 0 | 0.0 | 4.8 | 0.00 | 0.00 | 0.00 | 77 | 1018.1 |
| 20260508022424 | 11 | 0 | 0.0 | 0.0 | 0.00 | 0.00 | 0.00 | 77 | 1017.8 |
| 20260508021911 | 11 | 53 | 8.0 | 14.5 | 0.00 | 0.00 | 0.00 | 76 | 1017.9 |
| 20260508021358 | 11 | 0 | 0.0 | 14.5 | 0.00 | 0.00 | 0.00 | 76 | 1018.0 |
| 20260508020845 | 11 | 91 | 9.7 | 14.5 | 0.00 | 0.00 | 0.00 | 76 | 1017.9 |
| 20260508020332 | 11 | 117 | 3.2 | 12.9 | 0.00 | 0.00 | 0.00 | 76 | 1018.1 |
| 20260508015819 | 11 | 0 | 0.0 | 9.7 | 0.00 | 0.00 | 0.00 | 76 | 1018.0 |
| 20260508014753 | 11 | 15 | 8.0 | 19.3 | 0.00 | 0.00 | 0.00 | 75 | 1018.0 |
| 20260508014240 | 11 | 280 | 1.6 | 19.3 | 0.00 | 0.00 | 0.00 | 76 | 1018.1 |
| 20260508013727 | 11 | 8 | 1.6 | 19.3 | 0.00 | 0.00 | 0.00 | 75 | 1018.1 |
| 20260508013214 | 11 | 303 | 1.6 | 14.5 | 0.00 | 0.00 | 0.00 | 76 | 1018.1 |
| 20260508012701 | 11 | 326 | 4.8 | 17.7 | 0.00 | 0.00 | 0.00 | 75 | 1018.1 |
| 20260508012148 | 11 | 337 | 6.4 | 17.7 | 0.00 | 0.00 | 0.00 | 75 | 1018.2 |
| 20260508011635 | 11 | 49 | 6.4 | 17.7 | 0.00 | 0.00 | 0.00 | 75 | 1018.1 |
| 20260508011122 | 11 | 44 | 4.8 | 11.3 | 0.00 | 0.00 | 0.00 | 75 | 1018.1 |
| 20260508010609 | 11 | 351 | 1.6 | 19.3 | 0.00 | 0.00 | 0.00 | 75 | 1018.2 |
| 20260508010056 | 11 | 302 | 1.6 | 19.3 | 0.00 | 0.00 | 0.00 | 74 | 1018.3 |
| 20260508005543 | 11 | 294 | 8.0 | 19.3 | 0.00 | 0.00 | 0.00 | 74 | 1018.2 |
| 20260508005030 | 11 | 317 | 3.2 | 16.1 | 0.00 | 0.00 | 0.00 | 75 | 1018.2 |
| 20260508004517 | 11 | 158 | 1.6 | 14.5 | 0.00 | 0.00 | 0.00 | 75 | 1018.1 |
| 20260508004004 | 11 | 126 | 6.4 | 17.7 | 0.00 | 0.00 | 0.00 | 74 | 1018.2 |
| 20260508003451 | 11 | 312 | 4.8 | 17.7 | 0.00 | 0.00 | 0.00 | 74 | 1018.4 |
| 20260508002938 | 11 | 357 | 6.4 | 17.7 | 0.00 | 0.00 | 0.00 | 75 | 1018.4 |
| 20260508002426 | 11 | 327 | 8.0 | 16.1 | 0.00 | 0.00 | 0.00 | 74 | 1018.5 |
| 20260508001912 | 12 | 288 | 8.0 | 14.5 | 0.00 | 0.00 | 0.00 | 74 | 1018.4 |
| 20260508001359 | 11 | 309 | 4.8 | 14.5 | 0.00 | 0.00 | 0.00 | 74 | 1018.6 |
| 20260508000846 | 11 | 322 | 6.4 | 14.5 | 0.00 | 0.00 | 0.00 | 74 | 1018.5 |
| 20260508000334 | 11 | 19 | 0.0 | 17.7 | 0.00 | 0.00 | 0.00 | 75 | 1018.4 |
| 20260507235820 | 11 | 0 | 4.8 | 17.7 | 0.00 | 0.00 | 0.00 | 74 | 1018.5 |
| 20260507235307 | 11 | 316 | 4.8 | 17.7 | 0.00 | 0.00 | 0.00 | 74 | 1018.6 |
| 20260507234754 | 11 | 308 | 8.0 | 17.7 | 0.00 | 0.00 | 0.00 | 74 | 1018.6 |
| 20260507234241 | 11 | 296 | 11.3 | 17.7 | 0.00 | 0.00 | 0.00 | 74 | 1018.6 |
| 20260507233727 | 11 | 329 | 8.0 | 17.7 | 0.00 | 0.00 | 0.00 | 75 | 1018.7 |
| 20260507233215 | 11 | 36 | 6.4 | 14.5 | 0.00 | 0.00 | 0.00 | 74 | 1018.7 |
| 20260507232702 | 11 | 1 | 4.8 | 12.9 | 0.00 | 0.00 | 0.00 | 74 | 1018.8 |
| 20260507231635 | 11 | 355 | 3.2 | 17.7 | 0.00 | 0.00 | 0.00 | 74 | 1018.9 |
| 20260507231123 | 11 | 40 | 6.4 | 17.7 | 0.00 | 0.00 | 0.00 | 74 | 1019.0 |
| 20260507230609 | 11 | 329 | 8.0 | 16.1 | 0.00 | 0.00 | 0.00 | 75 | 1018.9 |
| 20260507230057 | 11 | 42 | 6.4 | 16.1 | 0.00 | 0.00 | 0.00 | 74 | 1019.0 |
| 20260507225543 | 11 | 19 | 4.8 | 16.1 | 0.00 | 0.00 | 0.00 | 75 | 1019.1 |
| 20260507225030 | 12 | 135 | 6.4 | 16.1 | 0.00 | 0.00 | 0.00 | 75 | 1019.0 |
| 20260507224518 | 11 | 331 | 4.8 | 19.3 | 0.00 | 0.00 | 0.00 | 75 | 1019.2 |
| 20260507224006 | 12 | 357 | 4.8 | 19.3 | 0.00 | 0.00 | 0.00 | 75 | 1019.3 |
| 20260507223451 | 11 | 302 | 9.7 | 19.3 | 0.00 | 0.00 | 0.00 | 76 | 1019.3 |
| 20260507222938 | 11 | 323 | 11.3 | 17.7 | 0.00 | 0.00 | 0.00 | 75 | 1019.3 |
| 20260507222425 | 11 | 5 | 4.8 | 17.7 | 0.00 | 0.00 | 0.00 | 75 | 1019.3 |
| 20260507221912 | 11 | 331 | 8.0 | 16.1 | 0.00 | 0.00 | 0.00 | 75 | 1019.3 |
| 20260507221359 | 11 | 33 | 6.4 | 14.5 | 0.00 | 0.00 | 0.00 | 75 | 1019.4 |
| 20260507220846 | 11 | 43 | 9.7 | 14.5 | 0.00 | 0.00 | 0.00 | 75 | 1019.4 |
| 20260507220333 | 11 | 319 | 8.0 | 20.9 | 0.00 | 0.00 | 0.00 | 75 | 1019.5 |
| 20260507215820 | 11 | 103 | 6.4 | 20.9 | 0.00 | 0.00 | 0.00 | 75 | 1019.5 |
| 20260507214754 | 11 | 133 | 4.8 | 20.9 | 0.00 | 0.00 | 0.00 | 76 | 1019.5 |
| 20260507214241 | 11 | 287 | 8.0 | 20.9 | 0.00 | 0.00 | 0.00 | 75 | 1019.7 |
| 20260507213728 | 11 | 5 | 8.0 | 20.9 | 0.00 | 0.00 | 0.00 | 75 | 1019.6 |
| 20260507213215 | 12 | 18 | 6.4 | 19.3 | 0.00 | 0.00 | 0.00 | 76 | 1019.6 |
| 20260507212702 | 12 | 5 | 8.0 | 19.3 | 0.00 | 0.00 | 0.00 | 75 | 1019.6 |
| 20260507211637 | 12 | 316 | 4.8 | 16.1 | 0.00 | 0.00 | 0.00 | 75 | 1019.7 |
| 20260507211123 | 11 | 312 | 4.8 | 19.3 | 0.00 | 0.00 | 0.00 | 77 | 1019.6 |
| 20260507210610 | 11 | 19 | 8.0 | 19.3 | 0.00 | 0.00 | 0.00 | 76 | 1019.5 |
| 20260507210057 | 11 | 316 | 11.3 | 19.3 | 0.00 | 0.00 | 0.00 | 75 | 1019.5 |
| 20260507205544 | 12 | 35 | 6.4 | 17.7 | 0.00 | 0.00 | 0.00 | 76 | 1019.5 |
| 20260507205031 | 12 | 338 | 8.0 | 17.7 | 0.00 | 0.00 | 0.00 | 75 | 1019.4 |
| 20260507204518 | 12 | 303 | 8.0 | 16.1 | 0.00 | 0.00 | 0.00 | 76 | 1019.4 |
| 20260507204006 | 12 | 42 | 6.4 | 20.9 | 0.00 | 0.00 | 0.00 | 76 | 1019.4 |
| 20260507203452 | 12 | 39 | 1.6 | 20.9 | 0.00 | 0.00 | 0.00 | 76 | 1019.5 |